Погода в Хорошем

Россия / Новосибирская область     53°35′16″N   78°29′56″E
темп.,
°C
ветер,
м/с
пор.,
м/с
влажн.,
%
обл.,
%
осадки,
мм/ч
давл.,
гПа
погр.,
м
21 октября, чт
чт2101:00+8ююв4847100 0.0 1011115
04:00+7ю4750100 0.0 101091
07:00+7ю4650100 0.0 101085
10:00+8ю41050100 0.0 1010215
13:00+13ююз5937100 0.0 1009436
16:00+14юз5832100 0.0 1009683
19:00+11ю3542100 0.0 101077
22:00+10ю41049100 0.0 1010221
22 октября, пт
пт2201:00+9зюз5972100 0.0 1010387
04:00+4зюз51290100 1.4 1012815
07:00+5зюз71261100 1.5 1013825
10:00+4юз8126690 0.0 10161057
13:00+5зюз101258100 0.0 10181369
16:00+5зюз91250100 0.0 10201500
19:00+5юз6124797 0.0 1021439
22:00+4ююз6144856 0.0 1022539
23 октября, сб
сб2301:00+3ююз816465 0.0 1022573
04:00+3ююз8154758 0.0 1022739
07:00+2ююз91584100 0.0 1021766
10:00+3ююз91696100 0.1 1020802
13:00+5ююз101778100 0.2 1018865
16:00+6юз101676100 0.5 10171080
19:00+8юз81562100 0.5 1017799
22:00+8юз71460100 0.0 1018635
24 октября, вс
вс2401:00+7юз614673 0.0 1019395
04:00+6юз6137388 0.0 1020365
07:00+6юз61277100 0.0 1021343
10:00+7юз6127699 0.0 1022407
13:00+11зюз710635 0.0 1022658
16:00+13зюз695878 0.0 1022924
19:00+10ююз477363 0.0 1022117
22:00+10ююз41076100 0.0 1022244
25 октября, пн
пн2501:00+9ююз41183100 0.0 1022220
04:00+8ююз511855 0.0 1021219
07:00+7ююз51185100 0.0 1021208
10:00+8ююз51174100 0.0 1021274
13:00+12юз7114758 0.0 1020544
16:00+14юз693993 0.0 1019755
19:00+10ююз485140 0.0 1019138
22:00+10юз3754100 0.0 1019121